Year,Month,Day,Hour,Minute,Value (Times are PST for temperature in C)
2007,07,14,00,00,17.80
2007,07,14,00,01,17.90
2007,07,14,00,02,17.90
2007,07,14,00,03,17.90
2007,07,14,00,04,17.90
2007,07,14,00,05,17.80
2007,07,14,00,06,17.80
2007,07,14,00,07,17.80
2007,07,14,00,08,17.70
2007,07,14,00,09,17.70
2007,07,14,00,10,17.70
2007,07,14,00,11,17.70
2007,07,14,00,12,17.70
2007,07,14,00,13,17.60
2007,07,14,00,14,17.60
2007,07,14,00,15,17.60
2007,07,14,00,16,17.60
2007,07,14,00,17,17.60
2007,07,14,00,18,17.60
2007,07,14,00,19,17.60
2007,07,14,00,20,17.60
2007,07,14,00,21,17.60
2007,07,14,00,22,17.60
2007,07,14,00,23,17.60
2007,07,14,00,24,17.60
2007,07,14,00,25,17.50
2007,07,14,00,26,17.50
2007,07,14,00,27,17.50
2007,07,14,00,28,17.60
2007,07,14,00,29,17.60
2007,07,14,00,30,17.60
2007,07,14,00,31,17.70
2007,07,14,00,32,17.70
2007,07,14,00,33,17.70
2007,07,14,00,34,17.70
2007,07,14,00,35,17.70
2007,07,14,00,36,17.60
2007,07,14,00,37,17.60
2007,07,14,00,38,17.50
2007,07,14,00,39,17.50
2007,07,14,00,40,17.50
2007,07,14,00,41,17.50
2007,07,14,00,42,17.50
2007,07,14,00,43,17.50
2007,07,14,00,44,17.50
2007,07,14,00,45,17.60
2007,07,14,00,46,17.60
2007,07,14,00,47,17.70
2007,07,14,00,48,17.70
2007,07,14,00,49,17.80
2007,07,14,00,50,17.80
2007,07,14,00,51,17.90
2007,07,14,00,52,17.90
2007,07,14,00,53,17.90
2007,07,14,00,54,17.90
2007,07,14,00,55,17.90
2007,07,14,00,56,17.90
2007,07,14,00,57,17.90
2007,07,14,00,58,17.90
2007,07,14,00,59,17.90
2007,07,14,01,00,17.90
2007,07,14,01,01,17.90
2007,07,14,01,02,17.90
2007,07,14,01,03,17.90
2007,07,14,01,04,17.80
2007,07,14,01,05,17.60
2007,07,14,01,06,17.50
2007,07,14,01,07,17.50
2007,07,14,01,08,17.40
2007,07,14,01,09,17.40
2007,07,14,01,10,17.40
2007,07,14,01,11,17.40
2007,07,14,01,12,17.40
2007,07,14,01,13,17.40
2007,07,14,01,14,17.40
2007,07,14,01,15,17.40
2007,07,14,01,16,17.40
2007,07,14,01,17,17.50
2007,07,14,01,18,17.50
2007,07,14,01,19,17.50
2007,07,14,01,20,17.50
2007,07,14,01,21,17.40
2007,07,14,01,22,17.40
2007,07,14,01,23,17.40
2007,07,14,01,24,17.40
2007,07,14,01,25,17.40
2007,07,14,01,26,17.40
2007,07,14,01,27,17.30
2007,07,14,01,28,17.30
2007,07,14,01,29,17.30
2007,07,14,01,30,17.30
2007,07,14,01,31,17.20
2007,07,14,01,32,17.10
2007,07,14,01,33,17.00
2007,07,14,01,34,17.00
2007,07,14,01,35,17.00
2007,07,14,01,36,16.90
2007,07,14,01,37,16.90
2007,07,14,01,38,16.90
2007,07,14,01,39,16.90
2007,07,14,01,40,16.90
2007,07,14,01,41,16.90
2007,07,14,01,42,16.90
2007,07,14,01,43,16.90
2007,07,14,01,44,16.80
2007,07,14,01,45,16.70
2007,07,14,01,46,16.60
2007,07,14,01,47,16.50
2007,07,14,01,48,16.40
2007,07,14,01,49,16.30
2007,07,14,01,50,16.20
2007,07,14,01,51,16.10
2007,07,14,01,52,15.80
2007,07,14,01,53,15.70
2007,07,14,01,54,15.50
2007,07,14,01,55,15.40
2007,07,14,01,56,15.20
2007,07,14,01,57,15.10
2007,07,14,01,58,15.00
2007,07,14,01,59,14.80
2007,07,14,02,00,14.60
2007,07,14,02,01,14.50
2007,07,14,02,02,14.40
2007,07,14,02,03,14.30
2007,07,14,02,04,14.20
2007,07,14,02,05,14.20
2007,07,14,02,06,14.10
2007,07,14,02,07,14.10
2007,07,14,02,08,14.00
2007,07,14,02,09,14.00
2007,07,14,02,10,14.00
2007,07,14,02,11,13.90
2007,07,14,02,12,13.90
2007,07,14,02,13,13.90
2007,07,14,02,14,13.90
2007,07,14,02,15,13.90
2007,07,14,02,16,13.90
2007,07,14,02,17,13.90
2007,07,14,02,18,13.90
2007,07,14,02,19,13.90
2007,07,14,02,20,13.90
2007,07,14,02,21,13.90
2007,07,14,02,22,14.00
2007,07,14,02,23,14.00
2007,07,14,02,24,14.10
2007,07,14,02,25,14.10
2007,07,14,02,26,14.10
2007,07,14,02,27,14.10
2007,07,14,02,28,14.10
2007,07,14,02,29,14.20
2007,07,14,02,30,14.20
2007,07,14,02,31,14.20
2007,07,14,02,32,14.30
2007,07,14,02,33,14.40
2007,07,14,02,34,14.40
2007,07,14,02,35,14.40
2007,07,14,02,36,14.50
2007,07,14,02,37,14.50
2007,07,14,02,38,14.60
2007,07,14,02,39,14.60
2007,07,14,02,40,14.60
2007,07,14,02,41,14.70
2007,07,14,02,42,14.70
2007,07,14,02,43,14.70
2007,07,14,02,44,14.70
2007,07,14,02,45,14.80
2007,07,14,02,46,14.80
2007,07,14,02,47,14.80
2007,07,14,02,48,14.80
2007,07,14,02,49,14.80
2007,07,14,02,50,14.80
2007,07,14,02,51,14.80
2007,07,14,02,52,14.80
2007,07,14,02,53,14.80
2007,07,14,02,54,14.80
2007,07,14,02,55,14.80
2007,07,14,02,56,14.70
2007,07,14,02,57,14.70
2007,07,14,02,58,14.70
2007,07,14,02,59,14.80
2007,07,14,03,00,14.80
2007,07,14,03,01,14.80
2007,07,14,03,02,14.90
2007,07,14,03,03,15.00
2007,07,14,03,04,15.10
2007,07,14,03,05,15.20
2007,07,14,03,06,15.30
2007,07,14,03,07,15.30
2007,07,14,03,08,15.30
2007,07,14,03,09,15.30
2007,07,14,03,10,15.30
2007,07,14,03,11,15.20
2007,07,14,03,12,15.20
2007,07,14,03,13,15.20
2007,07,14,03,14,15.20
2007,07,14,03,15,15.30
2007,07,14,03,16,15.30
2007,07,14,03,17,15.30
2007,07,14,03,18,15.30
2007,07,14,03,19,15.20
2007,07,14,03,20,15.10
2007,07,14,03,21,15.00
2007,07,14,03,22,14.90
2007,07,14,03,23,14.90
2007,07,14,03,24,14.80
2007,07,14,03,25,14.80
2007,07,14,03,26,14.80
2007,07,14,03,27,14.80
2007,07,14,03,28,14.70
2007,07,14,03,29,14.70
2007,07,14,03,30,14.70
2007,07,14,03,31,14.70
2007,07,14,03,32,14.70
2007,07,14,03,33,14.70
2007,07,14,03,34,14.70
2007,07,14,03,35,14.70
2007,07,14,03,36,14.70
2007,07,14,03,37,14.60
2007,07,14,03,38,14.60
2007,07,14,03,39,14.60
2007,07,14,03,40,14.60
2007,07,14,03,41,14.60
2007,07,14,03,42,14.50
2007,07,14,03,43,14.50
2007,07,14,03,44,14.50
2007,07,14,03,45,14.40
2007,07,14,03,46,14.40
2007,07,14,03,47,14.40
2007,07,14,03,48,14.40
2007,07,14,03,49,14.40
2007,07,14,03,50,14.50
2007,07,14,03,51,14.50
2007,07,14,03,52,14.60
2007,07,14,03,53,14.60
2007,07,14,03,54,14.70
2007,07,14,03,55,14.70
2007,07,14,03,56,14.80
2007,07,14,03,57,14.80
2007,07,14,03,58,14.80
2007,07,14,03,59,14.80
2007,07,14,04,00,14.80
2007,07,14,04,01,14.80
2007,07,14,04,02,14.80
2007,07,14,04,03,14.90
2007,07,14,04,04,15.00
2007,07,14,04,05,15.00
2007,07,14,04,06,15.10
2007,07,14,04,07,15.10
2007,07,14,04,08,15.20
2007,07,14,04,09,15.20
2007,07,14,04,10,15.20
2007,07,14,04,11,15.20
2007,07,14,04,12,15.20
2007,07,14,04,13,15.30
2007,07,14,04,14,15.30
2007,07,14,04,15,15.30
2007,07,14,04,16,15.30
2007,07,14,04,17,15.30
2007,07,14,04,18,15.30
2007,07,14,04,19,15.40
2007,07,14,04,20,15.40
2007,07,14,04,21,15.40
2007,07,14,04,22,15.40
2007,07,14,04,23,15.50
2007,07,14,04,24,15.50
2007,07,14,04,25,15.50
2007,07,14,04,26,15.40
2007,07,14,04,27,15.40
2007,07,14,04,28,15.40
2007,07,14,04,29,15.30
2007,07,14,04,30,15.30
2007,07,14,04,31,15.30
2007,07,14,04,32,15.30
2007,07,14,04,33,15.30
2007,07,14,04,34,15.40
2007,07,14,04,35,15.40
2007,07,14,04,36,15.50
2007,07,14,04,37,15.50
2007,07,14,04,38,15.60
2007,07,14,04,39,15.50
2007,07,14,04,40,15.40
2007,07,14,04,41,15.30
2007,07,14,04,42,15.20
2007,07,14,04,43,15.10
2007,07,14,04,44,15.00
2007,07,14,04,45,14.90
2007,07,14,04,46,14.70
2007,07,14,04,47,14.60
2007,07,14,04,48,14.50
2007,07,14,04,49,14.40
2007,07,14,04,50,14.30
2007,07,14,04,51,14.20
2007,07,14,04,52,14.20
2007,07,14,04,53,14.20
2007,07,14,04,54,14.30
2007,07,14,04,55,14.30
2007,07,14,04,56,14.30
2007,07,14,04,57,14.40
2007,07,14,04,58,14.40
2007,07,14,04,59,14.40
2007,07,14,05,00,14.40
2007,07,14,05,01,14.40
2007,07,14,05,02,14.40
2007,07,14,05,03,14.40
2007,07,14,05,04,14.50
2007,07,14,05,05,14.50
2007,07,14,05,06,14.60
2007,07,14,05,07,14.60
2007,07,14,05,08,14.70
2007,07,14,05,09,14.70
2007,07,14,05,10,14.80
2007,07,14,05,11,14.80
2007,07,14,05,12,14.90
2007,07,14,05,13,15.00
2007,07,14,05,14,15.00
2007,07,14,05,15,15.10
2007,07,14,05,16,15.20
2007,07,14,05,17,15.20
2007,07,14,05,18,15.20
2007,07,14,05,19,15.20
2007,07,14,05,20,15.20
2007,07,14,05,21,15.10
2007,07,14,05,22,15.10
2007,07,14,05,23,15.00
2007,07,14,05,24,15.00
2007,07,14,05,25,15.00
2007,07,14,05,26,15.00
2007,07,14,05,27,14.90
2007,07,14,05,28,14.90
2007,07,14,05,29,15.00
2007,07,14,05,30,15.00
2007,07,14,05,31,15.10
2007,07,14,05,32,15.10
2007,07,14,05,33,15.10
2007,07,14,05,34,15.20
2007,07,14,05,35,15.30
2007,07,14,05,36,15.30
2007,07,14,05,37,15.30
2007,07,14,05,38,15.30
2007,07,14,05,39,15.40
2007,07,14,05,40,15.40
2007,07,14,05,41,15.40
2007,07,14,05,42,15.40
2007,07,14,05,43,15.40
2007,07,14,05,44,15.40
2007,07,14,05,45,15.40
2007,07,14,05,46,15.40
2007,07,14,05,47,15.40
2007,07,14,05,48,15.40
2007,07,14,05,49,15.40
2007,07,14,05,50,15.40
2007,07,14,05,51,15.30
2007,07,14,05,52,15.30
2007,07,14,05,53,15.30
2007,07,14,05,54,15.30
2007,07,14,05,55,15.30
2007,07,14,05,56,15.30
2007,07,14,05,57,15.20
2007,07,14,05,58,15.20
2007,07,14,05,59,15.20
2007,07,14,06,00,15.20
2007,07,14,06,01,15.30
2007,07,14,06,02,15.30
2007,07,14,06,03,15.30
2007,07,14,06,04,15.40
2007,07,14,06,05,15.50
2007,07,14,06,06,15.50
2007,07,14,06,07,15.70
2007,07,14,06,08,15.80
2007,07,14,06,09,15.80
2007,07,14,06,10,15.80
2007,07,14,06,11,15.90
2007,07,14,06,12,15.90
2007,07,14,06,13,16.10
2007,07,14,06,14,16.10
2007,07,14,06,15,16.10
2007,07,14,06,16,16.10
2007,07,14,06,17,16.20
2007,07,14,06,18,16.20
2007,07,14,06,19,16.20
2007,07,14,06,20,16.20
2007,07,14,06,21,16.10
2007,07,14,06,22,16.10
2007,07,14,06,23,16.00
2007,07,14,06,24,15.90
2007,07,14,06,25,15.80
2007,07,14,06,26,15.80
2007,07,14,06,27,15.60
2007,07,14,06,28,15.50
2007,07,14,06,29,15.40
2007,07,14,06,30,15.30
2007,07,14,06,31,15.20
2007,07,14,06,32,15.10
2007,07,14,06,33,14.90
2007,07,14,06,34,14.80
2007,07,14,06,35,14.60
2007,07,14,06,36,14.50
2007,07,14,06,37,14.50
2007,07,14,06,38,14.40
2007,07,14,06,39,14.40
2007,07,14,06,40,14.30
2007,07,14,06,41,14.30
2007,07,14,06,42,14.30
2007,07,14,06,43,14.30
2007,07,14,06,44,14.30
2007,07,14,06,45,14.40
2007,07,14,06,46,14.40
2007,07,14,06,47,14.40
2007,07,14,06,48,14.40
2007,07,14,06,49,14.50
2007,07,14,06,50,14.50
2007,07,14,06,51,14.70
2007,07,14,06,52,14.70
2007,07,14,06,53,14.60
2007,07,14,06,54,14.60
2007,07,14,06,55,14.50
2007,07,14,06,56,14.40
2007,07,14,06,57,14.30
2007,07,14,06,58,14.20
2007,07,14,06,59,14.20
2007,07,14,07,00,14.20
2007,07,14,07,01,14.10
2007,07,14,07,02,14.00
2007,07,14,07,03,13.90
2007,07,14,07,04,13.70
2007,07,14,07,05,13.60
2007,07,14,07,06,13.50
2007,07,14,07,07,13.40
2007,07,14,07,08,13.40
2007,07,14,07,09,13.30
2007,07,14,07,10,13.30
2007,07,14,07,11,13.30
2007,07,14,07,12,13.40
2007,07,14,07,13,13.50
2007,07,14,07,14,13.60
2007,07,14,07,15,13.60
2007,07,14,07,16,13.70
2007,07,14,07,17,13.70
2007,07,14,07,18,13.70
2007,07,14,07,19,13.70
2007,07,14,07,20,13.80
2007,07,14,07,21,13.90
2007,07,14,07,22,13.90
2007,07,14,07,23,13.90
2007,07,14,07,24,13.80
2007,07,14,07,25,13.80
2007,07,14,07,26,13.80
2007,07,14,07,27,13.90
2007,07,14,07,28,14.00
2007,07,14,07,29,14.00
2007,07,14,07,30,14.10
2007,07,14,07,31,14.10
2007,07,14,07,32,14.10
2007,07,14,07,33,14.10
2007,07,14,07,34,14.10
2007,07,14,07,35,14.10
2007,07,14,07,36,14.10
2007,07,14,07,37,14.00
2007,07,14,07,38,13.90
2007,07,14,07,39,13.90
2007,07,14,07,40,13.90
2007,07,14,07,41,13.80
2007,07,14,07,42,13.80
2007,07,14,07,43,13.80
2007,07,14,07,44,13.80
2007,07,14,07,45,13.80
2007,07,14,07,46,13.80
2007,07,14,07,47,13.80
2007,07,14,07,48,13.80
2007,07,14,07,49,13.80
2007,07,14,07,50,13.80
2007,07,14,07,51,13.90
2007,07,14,07,52,14.00
2007,07,14,07,53,14.00
2007,07,14,07,54,14.10
2007,07,14,07,55,14.20
2007,07,14,07,56,14.20
2007,07,14,07,57,14.30
2007,07,14,07,58,14.50
2007,07,14,07,59,14.50
2007,07,14,08,00,14.60
2007,07,14,08,01,14.70
2007,07,14,08,02,14.80
2007,07,14,08,03,14.80
2007,07,14,08,04,14.80
2007,07,14,08,05,14.90
2007,07,14,08,06,14.90
2007,07,14,08,07,14.90
2007,07,14,08,08,15.00
2007,07,14,08,09,15.00
2007,07,14,08,10,15.10
2007,07,14,08,11,15.10
2007,07,14,08,12,15.10
2007,07,14,08,13,15.10
2007,07,14,08,14,15.10
2007,07,14,08,15,15.20
2007,07,14,08,16,15.20
2007,07,14,08,17,15.40
2007,07,14,08,18,15.40
2007,07,14,08,19,15.40
2007,07,14,08,20,15.60
2007,07,14,08,21,15.60
2007,07,14,08,22,15.80
2007,07,14,08,23,15.80
2007,07,14,08,24,15.80
2007,07,14,08,25,15.80
2007,07,14,08,26,15.80
2007,07,14,08,27,15.80
2007,07,14,08,28,15.90
2007,07,14,08,29,15.90
2007,07,14,08,30,16.00
2007,07,14,08,31,16.10
2007,07,14,08,32,16.10
2007,07,14,08,33,16.10
2007,07,14,08,34,16.10
2007,07,14,08,35,16.20
2007,07,14,08,36,16.20
2007,07,14,08,37,16.20
2007,07,14,08,38,16.30
2007,07,14,08,39,16.30
2007,07,14,08,40,16.30
2007,07,14,08,41,16.30
2007,07,14,08,42,16.30
2007,07,14,08,43,16.30
2007,07,14,08,44,16.40
2007,07,14,08,45,16.40
2007,07,14,08,46,16.40
2007,07,14,08,47,16.40
2007,07,14,08,48,16.60
2007,07,14,08,49,16.70
2007,07,14,08,50,16.70
2007,07,14,08,51,16.70
2007,07,14,08,52,16.80
2007,07,14,08,53,16.90
2007,07,14,08,54,16.90
2007,07,14,08,55,16.90
2007,07,14,08,56,16.90
2007,07,14,08,57,17.00
2007,07,14,08,58,17.00
2007,07,14,08,59,17.00
2007,07,14,09,00,17.10
2007,07,14,09,01,17.10
2007,07,14,09,02,17.20
2007,07,14,09,03,17.20
2007,07,14,09,04,17.30
2007,07,14,09,05,17.40
2007,07,14,09,06,17.50
2007,07,14,09,07,17.60
2007,07,14,09,08,17.60
2007,07,14,09,09,17.60
2007,07,14,09,10,17.60
2007,07,14,09,11,17.60
2007,07,14,09,12,17.60
2007,07,14,09,13,17.60
2007,07,14,09,14,17.70
2007,07,14,09,15,17.80
2007,07,14,09,16,17.90
2007,07,14,09,17,17.90
2007,07,14,09,18,18.00
2007,07,14,09,19,18.20
2007,07,14,09,20,18.40
2007,07,14,09,21,18.40
2007,07,14,09,22,18.50
2007,07,14,09,23,18.40
2007,07,14,09,24,18.30
2007,07,14,09,25,18.20
2007,07,14,09,26,18.20
2007,07,14,09,27,18.20
2007,07,14,09,28,18.30
2007,07,14,09,29,18.30
2007,07,14,09,30,18.20
2007,07,14,09,31,18.20
2007,07,14,09,32,18.20
2007,07,14,09,33,18.20
2007,07,14,09,34,18.20
2007,07,14,09,35,18.10
2007,07,14,09,36,18.10
2007,07,14,09,37,18.00
2007,07,14,09,38,17.90
2007,07,14,09,39,17.80
2007,07,14,09,40,17.80
2007,07,14,09,41,17.80
2007,07,14,09,42,17.80
2007,07,14,09,43,17.80
2007,07,14,09,44,17.80
2007,07,14,09,45,17.90
2007,07,14,09,46,18.00
2007,07,14,09,47,18.10
2007,07,14,09,48,18.20
2007,07,14,09,49,18.10
2007,07,14,09,50,18.00
2007,07,14,09,51,17.90
2007,07,14,09,52,17.80
2007,07,14,09,53,17.80
2007,07,14,09,54,17.70
2007,07,14,09,55,17.70
2007,07,14,09,56,17.60
2007,07,14,09,57,17.50
2007,07,14,09,58,17.50
2007,07,14,09,59,17.50
2007,07,14,10,00,17.40
2007,07,14,10,01,17.50
2007,07,14,10,02,17.60
2007,07,14,10,03,17.60
2007,07,14,10,04,17.60
2007,07,14,10,05,17.60
2007,07,14,10,06,17.70
2007,07,14,10,07,17.80
2007,07,14,10,08,17.90
2007,07,14,10,09,17.90
2007,07,14,10,10,17.90
2007,07,14,10,11,17.90
2007,07,14,10,12,17.90
2007,07,14,10,13,17.90
2007,07,14,10,14,17.90
2007,07,14,10,15,17.90
2007,07,14,10,16,17.90
2007,07,14,10,17,18.00
2007,07,14,10,18,18.10
2007,07,14,10,19,18.20
2007,07,14,10,20,18.20
2007,07,14,10,21,18.20
2007,07,14,10,22,18.20
2007,07,14,10,23,18.20
2007,07,14,10,24,18.20
2007,07,14,10,25,18.10
2007,07,14,10,26,18.20
2007,07,14,10,27,18.30
2007,07,14,10,28,18.50
2007,07,14,10,29,18.60
2007,07,14,10,30,18.80
2007,07,14,10,31,18.90
2007,07,14,10,32,18.90
2007,07,14,10,33,18.90
2007,07,14,10,34,18.90
2007,07,14,10,35,18.90
2007,07,14,10,36,18.90
2007,07,14,10,37,18.90
2007,07,14,10,38,18.90
2007,07,14,10,39,18.90
2007,07,14,10,40,18.80
2007,07,14,10,41,18.80
2007,07,14,10,42,18.90
2007,07,14,10,43,18.90
2007,07,14,10,44,18.90
2007,07,14,10,45,18.90
2007,07,14,10,46,18.90
2007,07,14,10,47,18.90
2007,07,14,10,48,18.90
2007,07,14,10,49,18.90
2007,07,14,10,50,19.00
2007,07,14,10,51,19.10
2007,07,14,10,52,19.10
2007,07,14,10,53,19.20
2007,07,14,10,54,19.40
2007,07,14,10,55,19.40
2007,07,14,10,56,19.30
2007,07,14,10,57,19.10
2007,07,14,10,58,19.10
2007,07,14,10,59,19.10
2007,07,14,11,00,19.00
2007,07,14,11,01,19.00
2007,07,14,11,02,19.10
2007,07,14,11,03,19.20
2007,07,14,11,04,19.30
2007,07,14,11,05,19.30
2007,07,14,11,06,19.40
2007,07,14,11,07,19.40
2007,07,14,11,08,19.50
2007,07,14,11,09,19.50
2007,07,14,11,10,19.60
2007,07,14,11,11,19.70
2007,07,14,11,12,19.90
2007,07,14,11,13,19.90
2007,07,14,11,14,19.90
2007,07,14,11,15,20.00
2007,07,14,11,16,19.90
2007,07,14,11,17,19.90
2007,07,14,11,18,19.90
2007,07,14,11,19,19.90
2007,07,14,11,20,20.00
2007,07,14,11,21,20.10
2007,07,14,11,22,20.20
2007,07,14,11,23,20.20
2007,07,14,11,24,20.20
2007,07,14,11,25,20.20
2007,07,14,11,26,20.20
2007,07,14,11,27,20.20
2007,07,14,11,28,20.30
2007,07,14,11,29,20.30
2007,07,14,11,30,20.30
2007,07,14,11,31,20.30
2007,07,14,11,32,20.40
2007,07,14,11,33,20.40
2007,07,14,11,34,20.40
2007,07,14,11,35,20.50
2007,07,14,11,36,20.40
2007,07,14,11,37,20.30
2007,07,14,11,38,20.20
2007,07,14,11,39,20.30
2007,07,14,11,40,20.40
2007,07,14,11,41,20.50
2007,07,14,11,42,20.50
2007,07,14,11,43,20.40
2007,07,14,11,44,20.40
2007,07,14,11,45,20.40
2007,07,14,11,46,20.50
2007,07,14,11,47,20.50
2007,07,14,11,48,20.50
2007,07,14,11,49,20.50
2007,07,14,11,50,20.60
2007,07,14,11,51,20.50
2007,07,14,11,52,20.50
2007,07,14,11,53,20.60
2007,07,14,11,54,20.60
2007,07,14,11,55,20.60
2007,07,14,11,56,20.70
2007,07,14,11,57,20.80
2007,07,14,11,58,21.00
2007,07,14,11,59,21.20
2007,07,14,12,00,21.40
2007,07,14,12,01,21.60
2007,07,14,12,02,21.80
2007,07,14,12,03,22.00
2007,07,14,12,04,22.00
2007,07,14,12,05,21.90
2007,07,14,12,06,21.80
2007,07,14,12,07,21.70
2007,07,14,12,08,21.70
2007,07,14,12,09,21.70
2007,07,14,12,10,21.70
2007,07,14,12,11,21.80
2007,07,14,12,12,21.60
2007,07,14,12,13,21.50
2007,07,14,12,14,21.50
2007,07,14,12,15,21.60
2007,07,14,12,16,21.80
2007,07,14,12,17,21.80
2007,07,14,12,18,21.90
2007,07,14,12,19,22.00
2007,07,14,12,20,22.10
2007,07,14,12,21,22.10
2007,07,14,12,22,22.10
2007,07,14,12,23,22.00
2007,07,14,12,24,22.00
2007,07,14,12,25,22.20
2007,07,14,12,26,22.30
2007,07,14,12,27,22.40
2007,07,14,12,28,22.40
2007,07,14,12,29,22.40
2007,07,14,12,30,22.40
2007,07,14,12,31,22.60
2007,07,14,12,32,22.80
2007,07,14,12,33,23.00
2007,07,14,12,34,23.20
2007,07,14,12,35,23.20
2007,07,14,12,36,23.30
2007,07,14,12,37,23.20
2007,07,14,12,38,22.90
2007,07,14,12,39,22.90
2007,07,14,12,40,22.90
2007,07,14,12,41,22.90
2007,07,14,12,42,22.80
2007,07,14,12,43,22.80
2007,07,14,12,44,22.80
2007,07,14,12,45,22.70
2007,07,14,12,46,22.80
2007,07,14,12,47,22.90
2007,07,14,12,48,22.90
2007,07,14,12,49,22.90
2007,07,14,12,50,22.90
2007,07,14,12,51,22.90
2007,07,14,12,52,22.90
2007,07,14,12,53,22.90
2007,07,14,12,54,23.00
2007,07,14,12,55,23.20
2007,07,14,12,56,23.20
2007,07,14,12,57,23.20
2007,07,14,12,58,23.20
2007,07,14,12,59,23.20
2007,07,14,13,00,23.30
2007,07,14,13,01,23.30
2007,07,14,13,02,23.40
2007,07,14,13,03,23.40
2007,07,14,13,04,23.40
2007,07,14,13,05,23.60
2007,07,14,13,06,23.40
2007,07,14,13,07,23.20
2007,07,14,13,08,23.20
2007,07,14,13,09,23.10
2007,07,14,13,10,22.80
2007,07,14,13,11,22.60
2007,07,14,13,12,22.50
2007,07,14,13,13,22.60
2007,07,14,13,14,22.60
2007,07,14,13,15,22.70
2007,07,14,13,16,22.50
2007,07,14,13,17,22.20
2007,07,14,13,18,22.00
2007,07,14,13,19,21.90
2007,07,14,13,20,22.00
2007,07,14,13,21,22.00
2007,07,14,13,22,22.10
2007,07,14,13,23,22.20
2007,07,14,13,24,22.30
2007,07,14,13,25,22.30
2007,07,14,13,26,22.30
2007,07,14,13,27,22.00
2007,07,14,13,28,21.90
2007,07,14,13,29,21.70
2007,07,14,13,30,21.60
2007,07,14,13,31,21.40
2007,07,14,13,32,21.50
2007,07,14,13,33,21.60
2007,07,14,13,34,21.70
2007,07,14,13,35,21.80
2007,07,14,13,36,22.10
2007,07,14,13,37,22.20
2007,07,14,13,38,22.40
2007,07,14,13,39,22.60
2007,07,14,13,40,22.70
2007,07,14,13,41,22.90
2007,07,14,13,42,23.10
2007,07,14,13,43,23.30
2007,07,14,13,44,23.30
2007,07,14,13,45,23.30
2007,07,14,13,46,23.20
2007,07,14,13,47,23.20
2007,07,14,13,48,23.30
2007,07,14,13,49,23.30
2007,07,14,13,50,23.40
2007,07,14,13,51,23.40
2007,07,14,13,52,23.40
2007,07,14,13,53,23.50
2007,07,14,13,54,23.50
2007,07,14,13,55,23.40
2007,07,14,13,56,23.20
2007,07,14,13,57,23.20
2007,07,14,13,58,23.00
2007,07,14,13,59,22.70
2007,07,14,14,00,22.60
2007,07,14,14,01,22.70
2007,07,14,14,02,22.70
2007,07,14,14,03,22.70
2007,07,14,14,04,22.80
2007,07,14,14,05,22.80
2007,07,14,14,06,23.00
2007,07,14,14,07,23.10
2007,07,14,14,08,23.20
2007,07,14,14,09,23.50
2007,07,14,14,10,23.70
2007,07,14,14,11,23.80
2007,07,14,14,12,23.90
2007,07,14,14,13,23.80
2007,07,14,14,14,23.80
2007,07,14,14,15,23.70
2007,07,14,14,16,23.60
2007,07,14,14,17,23.60
2007,07,14,14,18,23.60
2007,07,14,14,19,23.70
2007,07,14,14,20,23.50
2007,07,14,14,21,23.40
2007,07,14,14,22,23.30
2007,07,14,14,23,23.30
2007,07,14,14,24,23.30
2007,07,14,14,25,23.30
2007,07,14,14,26,23.30
2007,07,14,14,27,23.40
2007,07,14,14,28,23.40
2007,07,14,14,29,23.40
2007,07,14,14,30,23.50
2007,07,14,14,31,23.60
2007,07,14,14,32,23.70
2007,07,14,14,33,23.90
2007,07,14,14,34,24.00
2007,07,14,14,35,24.10
2007,07,14,14,36,24.10
2007,07,14,14,37,24.10
2007,07,14,14,38,24.10
2007,07,14,14,39,24.00
2007,07,14,14,40,23.80
2007,07,14,14,41,23.70
2007,07,14,14,42,23.80
2007,07,14,14,43,23.80
2007,07,14,14,44,23.90
2007,07,14,14,45,23.90
2007,07,14,14,46,23.90
2007,07,14,14,47,23.90
2007,07,14,14,48,23.80
2007,07,14,14,49,23.70
2007,07,14,14,50,23.50
2007,07,14,14,51,23.30
2007,07,14,14,52,23.20
2007,07,14,14,53,23.10
2007,07,14,14,54,23.00
2007,07,14,14,55,22.90
2007,07,14,14,56,22.60
2007,07,14,14,57,22.50
2007,07,14,14,58,22.40
2007,07,14,14,59,22.40
2007,07,14,15,00,22.40
2007,07,14,15,01,22.40
2007,07,14,15,02,22.40
2007,07,14,15,03,22.40
2007,07,14,15,04,22.50
2007,07,14,15,05,22.60
2007,07,14,15,06,22.70
2007,07,14,15,07,22.80
2007,07,14,15,08,23.20
2007,07,14,15,09,23.30
2007,07,14,15,10,23.30
2007,07,14,15,11,23.30
2007,07,14,15,12,23.30
2007,07,14,15,13,23.30
2007,07,14,15,14,23.40
2007,07,14,15,15,23.60
2007,07,14,15,16,23.80
2007,07,14,15,17,23.90
2007,07,14,15,18,24.00
2007,07,14,15,19,24.10
2007,07,14,15,20,24.20
2007,07,14,15,21,24.30
2007,07,14,15,22,24.30
2007,07,14,15,23,24.30
2007,07,14,15,24,24.30
2007,07,14,15,25,24.20
2007,07,14,15,26,24.20
2007,07,14,15,27,24.20
2007,07,14,15,28,24.20
2007,07,14,15,29,24.20
2007,07,14,15,30,24.20
2007,07,14,15,31,24.40
2007,07,14,15,32,24.50
2007,07,14,15,33,24.70
2007,07,14,15,34,24.90
2007,07,14,15,35,24.80
2007,07,14,15,36,24.90
2007,07,14,15,37,25.00
2007,07,14,15,38,25.20
2007,07,14,15,39,25.40
2007,07,14,15,40,25.50
2007,07,14,15,41,25.60
2007,07,14,15,42,25.70
2007,07,14,15,43,25.70
2007,07,14,15,44,25.70
2007,07,14,15,45,25.60
2007,07,14,15,46,25.60
2007,07,14,15,47,25.40
2007,07,14,15,48,25.20
2007,07,14,15,49,25.10
2007,07,14,15,50,24.90
2007,07,14,15,51,24.80
2007,07,14,15,52,24.80
2007,07,14,15,53,24.70
2007,07,14,15,54,24.70
2007,07,14,15,55,24.70
2007,07,14,15,56,24.80
2007,07,14,15,57,24.90
2007,07,14,15,58,24.90
2007,07,14,15,59,24.80
2007,07,14,16,00,24.70
2007,07,14,16,01,24.60
2007,07,14,16,02,24.60
2007,07,14,16,03,24.60
2007,07,14,16,04,24.80
2007,07,14,16,05,24.90
2007,07,14,16,06,25.20
2007,07,14,16,07,25.30
2007,07,14,16,08,25.40
2007,07,14,16,09,25.40
2007,07,14,16,10,25.20
2007,07,14,16,11,25.10
2007,07,14,16,12,24.90
2007,07,14,16,13,24.80
2007,07,14,16,14,24.80
2007,07,14,16,15,24.90
2007,07,14,16,16,25.00
2007,07,14,16,17,25.00
2007,07,14,16,18,25.20
2007,07,14,16,19,25.30
2007,07,14,16,20,25.50
2007,07,14,16,21,25.60
2007,07,14,16,22,25.80
2007,07,14,16,23,26.00
2007,07,14,16,24,26.20
2007,07,14,16,25,26.30
2007,07,14,16,26,26.50
2007,07,14,16,27,26.60
2007,07,14,16,28,26.60
2007,07,14,16,29,26.60
2007,07,14,16,30,26.70
2007,07,14,16,31,26.60
2007,07,14,16,32,26.50
2007,07,14,16,33,26.30
2007,07,14,16,34,26.20
2007,07,14,16,35,26.20
2007,07,14,16,36,26.10
2007,07,14,16,37,26.00
2007,07,14,16,38,25.90
2007,07,14,16,39,25.80
2007,07,14,16,40,25.80
2007,07,14,16,41,25.90
2007,07,14,16,42,25.80
2007,07,14,16,43,25.70
2007,07,14,16,44,25.60
2007,07,14,16,45,25.40
2007,07,14,16,46,25.30
2007,07,14,16,47,25.20
2007,07,14,16,48,25.10
2007,07,14,16,49,25.00
2007,07,14,16,50,24.90
2007,07,14,16,51,24.90
2007,07,14,16,52,25.00
2007,07,14,16,53,24.90
2007,07,14,16,54,24.90
2007,07,14,16,55,24.90
2007,07,14,16,56,24.90
2007,07,14,16,57,24.90
2007,07,14,16,58,24.90
2007,07,14,16,59,25.00
2007,07,14,17,00,25.00
2007,07,14,17,01,25.20
2007,07,14,17,02,25.30
2007,07,14,17,03,25.40
2007,07,14,17,04,25.60
2007,07,14,17,05,25.70
2007,07,14,17,06,25.80
2007,07,14,17,07,25.90
2007,07,14,17,08,26.00
2007,07,14,17,09,26.00
2007,07,14,17,10,25.80
2007,07,14,17,11,25.60
2007,07,14,17,12,25.40
2007,07,14,17,13,25.40
2007,07,14,17,14,25.40
2007,07,14,17,15,25.40
2007,07,14,17,16,25.30
2007,07,14,17,17,25.20
2007,07,14,17,18,25.30
2007,07,14,17,19,25.30